Back to catalog

STARLINK-6308

AliveCommunicationsVLEO
NORAD 56534·PAYLOAD·🇺🇸 United States

Launched May 14, 2023 from Cape Canaveral Space Force Station

Loading…

Next Passes (next 24 hours)

TLE

FreshSource: CelesTrak SupGP

Epoch: Sep 14, 2026, 14:46 UTC

1 56534C 23065AH  26257.61576389 -.00028119  00000+0 -10187-2 0  2574
2 56534  43.0031 211.3337 0001253 275.5003 218.0286 15.27585044    18

Track STARLINK-6308 in real time with AllMySat

Download on the App Store